Simultaneous Nadir Overpasses (SNOs) Predictions

Prediction of SNOs between NOAA-19 and TERRA Satellite Orbit:

Table of predicted SNOs for the next 14.0 days since TLE Epoch: 5/7/2018
Index Date (NOAA-19) Time (NOAA-19) Lat,Lon (NOAA-19) SZA (NOAA-19 ) Date (TERRA) Time (TERRA) Lat,Lon (TERRA) SZA (TERRA ) Distance(km) Time Diff (sec)
1 05/07/2018 04:57:41 76.98, 121.21 60.70 05/07/2018 04:58:50 76.96, 121.24 60.70 2.46 69
2 05/07/2018 05:48:39 -76.91, -71.21 119.36 05/07/2018 05:48:18 -76.93, -71.25 119.36 2.30 21
3 05/09/2018 10:31:23 -77.22,-143.21 119.75 05/09/2018 10:32:33 -77.12,-141.60 119.71 41.08 70
4 05/09/2018 11:22:17 76.94, 25.32 60.07 05/09/2018 11:22:03 76.93, 25.31 60.05 1.30 14
5 05/11/2018 16:55:54 -76.95, 121.95 120.50 05/11/2018 16:55:49 -76.95, 121.95 120.51 0.26 5
6 05/13/2018 22:29:30 76.96,-141.40 58.96 05/13/2018 22:29:34 76.94,-141.53 58.93 3.58 4
7 05/16/2018 04:03:08 -76.96, -44.76 121.57 05/16/2018 04:03:20 -76.96, -44.89 121.58 3.41 12
8 05/16/2018 04:54:00 76.67, 123.76 58.25 05/16/2018 04:52:51 76.71, 121.84 58.12 49.44 69
9 05/18/2018 09:36:43 76.98, 51.82 57.96 05/18/2018 09:37:04 76.98, 51.76 57.96 1.67 21
10 05/18/2018 10:27:45 -76.95,-140.78 122.08 05/18/2018 10:26:32 -76.96,-140.69 122.08 2.82 73
11 05/20/2018 15:10:22 -76.99, 148.46 122.52 05/20/2018 15:10:50 -77.00, 148.38 122.50 2.54 28




NCC Satellite Simultaneous Nadir Overpasses (SNOs) Prediction Service
